Theta_e
278 278 279 279 280 279 279 279 279 279 278 278 277 275 278 277 273 274 275 277 276 276 278 280 281 282 283 285 288 287 287 287 287 287 288 288 288 289 290 290 290 291 292 292 293 294 294 295 296 296 297 297 297 298 297 297 299 300 302 303 305 307 308 308 308 309 308 307 306 306 306 305 305 305 305 304 304 303 303 302 302 301 301 299 298 297 297
278 278 278 278 279 278 279 280 279 280 278 278 279 279 277 279 279 280 279 276 278 279 279 281 282 284 283 283 285 285 287 287 288 287 287 287 287 288 289 289 289 290 291 291 292 293 293 293 294 295 296 297 297 297 297 297 297 298 300 301 303 305 307 308 309 309 308 307 306 305 305 305 305 305 304 303 303 303 302 302 301 300 299 299 298 298 296
278 277 278 278 278 278 278 278 278 277 277 277 277 278 278 280 279 279 278 275 277 279 280 282 283 284 284 285 285 286 286 286 287 286 287 287 287 287 288 289 289 289 289 290 291 291 292 292 292 293 294 295 296 297 297 297 297 298 299 300 302 303 305 307 308 308 307 306 306 304 305 305 305 305 303 303 303 302 301 301 300 299 299 298 297 297 296
273 277 278 278 278 277 277 277 278 277 277 275 275 276 278 277 276 277 276 273 274 278 279 281 284 285 285 285 284 283 285 285 286 286 288 287 287 288 288 289 289 290 291 291 291 292 292 292 292 292 293 294 295 295 296 296 297 298 299 299 300 302 304 307 307 307 306 306 305 305 304 304 303 303 302 302 301 300 300 299 299 299 298 297 296 296 296
270 276 277 279 277 276 276 275 276 279 279 280 278 279 280 281 281 275 271 276 280 279 282 285 285 283 283 282 283 283 285 285 286 286 288 287 287 287 287 289 290 290 290 291 291 292 291 292 293 293 293 293 295 295 295 296 297 297 298 298 299 301 303 305 306 306 305 305 305 304 303 303 303 303 302 302 302 300 300 299 298 298 297 296 295 295 295
269 275 277 276 271 268 270 274 279 282 280 280 279 279 280 280 281 278 279 281 278 280 283 285 284 283 283 283 284 286 287 285 285 285 285 286 286 286 287 288 288 289 289 290 291 291 292 293 293 294 293 295 295 295 296 296 295 296 297 298 299 300 302 303 305 305 305 305 304 303 303 303 303 302 302 301 300 300 299 298 297 296 296 296 295 294 294
269 271 274 268 267 270 276 279 279 280 281 281 281 282 281 280 279 280 281 280 281 285 286 284 283 283 284 284 286 288 287 287 286 285 287 286 286 287 287 288 289 289 289 289 290 291 291 293 293 292 293 294 294 294 294 295 295 296 297 298 299 300 301 303 303 303 303 303 303 302 302 303 303 302 302 300 300 299 298 297 296 295 295 294 294 294 295
267 267 265 260 264 275 278 279 280 281 280 280 280 279 279 279 280 281 281 282 282 283 284 284 283 283 284 285 287 287 288 288 288 287 285 286 286 287 289 288 289 289 290 291 291 292 294 294 294 293 294 294 294 294 294 295 295 296 297 298 299 299 300 301 302 303 303 302 302 302 302 302 302 301 300 301 299 297 297 296 295 295 294 295 294 293 293
268 262 265 269 273 276 277 275 279 280 278 278 276 271 274 279 280 281 281 282 282 283 283 282 282 282 282 281 284 285 286 287 289 289 288 288 288 289 289 289 290 291 291 291 291 292 292 293 294 294 295 294 294 294 294 295 296 296 297 297 298 299 300 301 302 302 302 302 302 302 302 302 301 301 300 298 297 297 295 294 294 294 293 294 294 292 291
269 269 263 263 265 264 266 275 279 281 283 282 281 278 274 281 281 281 281 282 282 281 280 281 282 280 281 279 280 283 283 286 289 290 289 289 288 288 289 289 289 290 290 291 291 292 292 293 293 294 294 294 294 294 294 295 295 296 296 297 298 299 300 301 301 301 301 302 302 302 302 301 301 300 298 297 296 296 295 293 294 294 294 293 292 292 291
268 268 265 261 261 263 267 276 281 283 281 282 280 275 275 281 279 280 282 282 280 280 281 281 281 281 277 277 279 283 284 284 286 288 289 289 288 289 289 290 291 291 291 291 292 293 292 292 293 293 293 293 293 293 294 294 295 295 295 296 297 298 300 301 301 301 301 301 302 302 302 301 299 297 296 295 295 295 295 295 294 293 293 291 289 289 290
268 265 266 265 266 265 280 279 280 283 282 282 279 271 266 276 279 280 281 282 281 281 280 280 281 280 275 279 282 283 284 284 284 284 286 287 289 290 290 290 290 291 292 291 291 291 291 292 293 293 293 293 293 294 294 295 294 295 295 297 298 299 300 301 301 301 301 301 302 302 301 299 297 296 296 295 295 295 294 295 293 291 291 290 289 289 289
269 271 265 264 269 276 281 281 283 283 284 282 274 269 274 282 281 282 281 281 282 282 282 282 280 283 285 286 286 285 286 287 288 288 288 289 290 290 291 291 293 291 291 290 291 291 292 292 292 293 293 292 293 294 294 294 294 295 296 298 298 299 300 300 301 301 301 302 302 302 301 299 298 297 296 296 295 295 293 291 291 290 289 288 289 289 288
268 264 267 269 268 276 284 283 284 284 279 272 270 279 285 285 285 288 286 285 285 284 285 284 284 286 287 287 286 287 287 287 288 288 289 289 289 289 291 292 292 290 290 290 290 290 291 292 292 293 293 292 293 293 294 294 295 296 297 298 299 299 299 300 300 301 301 299 299 298 297 296 296 295 295 295 294 293 290 289 289 289 288 288 288 288 287
265 264 266 264 266 278 284 285 282 284 275 274 281 283 282 283 283 283 284 285 287 286 286 287 287 287 286 286 286 287 287 287 287 288 288 288 289 289 289 289 290 290 290 290 290 290 291 291 292 293 293 292 293 294 293 295 296 297 298 298 298 298 299 299 299 299 298 298 297 297 296 296 295 293 292 293 291 290 289 288 289 288 288 287 287 287 287
267 264 264 266 272 278 284 282 276 281 283 285 285 284 282 284 283 282 282 282 284 284 284 285 285 285 285 285 286 286 287 287 287 287 287 288 288 289 290 290 290 290 290 290 290 291 291 292 292 293 293 293 294 294 294 296 297 297 297 297 298 298 297 298 298 298 298 298 297 296 296 296 294 291 291 290 290 289 289 289 288 287 287 286 286 286 286
270 266 265 274 277 279 281 283 282 283 286 287 286 286 285 285 286 286 286 287 288 287 287 287 286 285 286 286 286 285 286 287 287 287 288 288 289 289 290 290 291 290 290 290 291 291 292 292 293 294 294 294 294 295 297 298 297 297 297 297 296 296 296 297 298 297 297 296 296 296 295 295 293 291 290 290 288 287 288 287 287 287 286 286 286 286 286
277 279 280 280 281 281 280 282 284 283 284 284 283 283 283 283 285 285 286 286 286 286 286 285 285 285 286 286 286 286 286 287 287 288 288 289 289 289 290 290 290 290 290 290 290 291 292 293 294 295 295 296 295 296 298 298 298 297 296 296 295 296 297 297 297 297 296 296 296 295 293 293 292 291 290 289 288 287 287 287 287 287 286 285 285 285 285
274 268 273 278 278 279 280 281 283 283 283 282 282 282 283 284 283 283 283 284 284 285 285 285 285 285 286 285 286 286 286 287 287 287 287 288 289 289 289 290 291 290 290 290 291 291 292 293 294 295 296 298 299 299 298 298 297 296 296 296 295 296 297 297 297 297 296 295 294 293 292 291 291 291 290 289 288 288 287 286 286 285 286 286 285 285 285
272 272 277 279 281 282 282 282 281 282 283 283 283 284 285 285 285 284 285 284 284 283 284 285 284 285 285 284 285 286 286 286 287 287 288 288 289 289 290 290 290 290 290 290 291 291 292 293 295 297 298 299 300 300 299 298 297 296 296 296 297 297 296 296 295 294 293 289 291 292 291 291 289 289 288 289 288 287 286 286 285 285 284 284 285 285 284
276 278 280 280 280 280 281 281 279 280 280 281 283 284 284 283 283 284 285 284 284 284 285 285 284 284 285 285 285 285 286 286 287 287 288 288 288 289 289 290 290 290 291 291 291 292 293 295 296 298 299 300 299 297 297 296 295 296 296 295 296 296 295 295 293 292 291 291 291 291 290 290 289 290 290 288 288 287 286 286 287 285 285 285 285 284 284
270 272 277 278 274 274 279 281 282 282 282 282 282 282 282 283 283 284 283 284 285 284 284 284 284 283 284 285 286 286 286 287 287 287 288 288 288 289 290 291 291 291 291 291 292 293 294 296 297 298 299 297 295 294 293 294 296 296 296 296 295 295 294 293 291 290 290 290 290 289 289 288 287 287 286 288 288 288 287 287 287 287 287 284 283 283 283
271 277 279 280 279 279 280 282 283 282 282 282 282 282 283 284 284 284 283 283 284 284 284 285 284 284 285 286 286 285 286 287 287 288 288 288 288 289 290 290 290 291 292 293 293 294 295 297 297 298 297 296 294 294 295 295 296 296 296 294 293 293 292 291 290 291 290 290 289 289 289 288 288 287 286 286 287 287 288 288 287 287 288 287 287 285 286
280 281 281 282 280 280 282 283 283 283 283 283 283 284 284 284 284 284 284 284 283 285 286 286 286 286 286 286 286 285 286 287 287 287 288 288 289 289 290 290 291 291 292 292 293 294 296 297 298 297 296 296 295 295 295 295 296 295 294 293 292 291 291 290 290 290 291 290 290 289 287 287 288 287 287 288 286 286 287 287 287 287 287 287 287 287 286
279 283 283 283 282 283 284 284 283 283 285 286 284 284 284 284 285 285 285 285 286 286 286 287 287 287 286 286 286 285 286 286 287 288 289 289 289 290 290 291 291 291 292 293 295 296 297 297 297 296 295 295 295 295 295 295 295 294 294 293 291 291 290 290 290 289 290 290 289 289 288 287 287 287 287 287 286 285 285 286 287 286 285 286 287 286 286
282 282 283 284 283 283 283 283 283 283 283 282 282 283 286 289 288 288 287 287 287 287 286 286 286 287 286 285 286 286 285 286 287 288 288 289 289 290 290 291 292 293 294 295 296 296 296 297 296 295 294 295 295 295 296 295 295 294 294 294 293 291 291 290 290 290 289 289 288 288 287 287 287 287 286 285 284 284 284 284 285 286 286 286 286 287 287
283 284 283 282 282 282 283 281 282 281 282 284 285 285 286 286 287 287 286 286 286 286 286 286 286 286 286 285 286 287 287 289 288 287 288 288 289 290 291 292 293 294 295 296 295 294 293 294 294 294 294 295 296 296 296 295 295 294 294 293 292 289 287 288 290 289 288 288 288 287 286 286 285 285 284 282 282 283 282 283 283 283 282 283 284 285 284
284 284 284 281 281 282 284 285 284 284 285 285 285 285 285 284 284 284 284 285 285 286 286 286 285 285 285 288 288 288 287 287 287 287 288 289 290 292 293 293 295 296 295 294 295 294 294 295 295 294 294 295 296 296 296 295 294 293 292 291 289 288 288 288 288 288 288 287 287 286 286 285 284 283 282 282 282 282 281 281 281 281 281 281 280 282 285
285 285 285 286 286 287 287 286 286 286 286 285 285 283 283 283 284 284 284 285 286 286 286 287 286 287 288 288 288 287 287 287 286 286 287 288 289 290 293 294 294 294 294 294 295 295 295 295 295 294 294 295 295 296 295 293 292 291 290 290 289 288 288 288 288 287 287 286 286 285 283 283 282 282 282 282 281 282 282 282 279 280 281 279 281 281 282
286 287 287 287 288 288 287 286 286 287 286 286 286 286 286 285 285 285 286 287 288 287 288 287 288 288 288 287 287 286 286 285 286 286 286 287 288 289 290 293 293 292 291 291 292 292 293 293 293 293 293 294 295 295 293 292 291 290 290 290 289 289 288 288 288 287 286 285 285 283 283 282 282 283 283 283 282 280 280 279 278 278 279 279 281 280 280
285 286 286 287 287 287 286 286 285 285 286 286 287 287 288 287 286 287 287 288 288 287 288 288 287 287 286 286 286 286 286 286 286 286 286 286 287 288 289 289 288 286 286 287 289 290 290 289 289 289 291 293 294 292 292 291 290 290 290 289 288 286 286 286 286 287 286 285 284 284 283 283 282 282 280 280 280 280 280 279 278 277 279 280 280 280 281
283 284 284 284 284 284 284 284 284 284 284 286 287 286 287 287 287 288 288 287 287 287 286 286 285 285 285 286 286 285 285 285 285 285 286 286 287 288 288 288 288 287 287 287 287 288 288 288 288 289 290 291 291 291 291 290 290 290 289 287 288 287 286 285 286 286 285 284 284 283 282 283 282 281 280 280 280 280 279 279 278 277 276 278 280 280 282
282 281 282 282 283 283 283 283 283 284 285 286 286 287 288 289 289 288 288 287 286 286 285 285 285 285 285 285 285 284 285 285 285 285 285 285 286 287 288 288 288 288 287 287 287 288 288 287 288 289 290 291 291 291 291 291 289 289 288 288 287 286 285 284 284 285 284 283 283 282 281 281 281 282 280 279 279 278 278 278 277 277 277 280 281 282 281
283 282 283 284 284 283 282 283 285 286 287 287 287 288 288 288 288 287 286 286 285 285 284 284 285 285 285 284 284 284 284 284 283 283 284 285 286 287 288 288 288 288 287 287 287 287 288 288 288 289 290 290 291 291 291 289 288 288 288 287 287 286 286 285 285 284 284 283 283 283 283 282 282 281 280 280 280 279 279 278 279 278 278 279 281 281 282
287 286 287 286 286 286 286 286 286 286 286 285 286 286 286 286 286 285 285 285 284 284 285 286 285 285 284 284 283 283 283 283 283 283 283 284 285 286 287 288 288 288 287 286 287 286 287 288 288 288 289 290 290 290 289 288 288 288 287 287 286 285 285 284 284 284 283 283 283 283 283 282 282 282 282 282 282 281 281 280 280 280 279 279 280 281 281
286 286 286 286 286 286 286 287 287 287 286 285 284 285 285 285 285 285 284 284 285 286 285 284 284 284 283 283 283 283 283 283 283 283 283 283 284 285 285 285 285 285 285 285 286 287 288 288 286 286 288 288 288 288 288 288 288 287 287 286 285 285 285 284 283 283 283 283 283 282 282 282 282 282 282 282 282 282 282 281 280 280 280 280 280 281 281
287 286 285 285 285 286 286 286 287 286 286 285 285 284 284 284 284 285 285 285 284 284 284 284 283 282 282 283 283 284 284 284 284 284 284 284 284 283 283 283 283 283 284 283 284 286 287 287 286 287 287 287 287 287 286 286 288 287 287 286 286 285 284 284 283 283 282 282 282 282 282 282 282 281 282 282 282 282 281 281 281 281 281 281 281 281 281
287 286 285 285 285 285 285 286 286 286 286 285 285 285 284 284 284 284 283 283 283 284 284 283 283 283 283 283 283 282 283 284 284 284 284 284 283 282 281 281 281 282 281 282 285 286 286 286 286 287 287 287 287 286 286 285 286 286 285 285 284 284 283 283 282 282 282 282 282 282 281 281 281 281 281 282 282 281 281 281 281 281 281 281 281 282 282
286 286 286 286 286 286 286 286 286 285 285 284 284 284 284 284 284 283 283 283 283 284 283 283 283 282 282 281 281 281 282 282 283 284 284 284 284 282 281 281 281 282 282 284 285 285 285 286 286 286 286 286 286 286 286 285 285 285 284 284 284 283 283 282 282 282 282 282 282 282 282 281 281 281 281 281 282 281 281 281 281 281 281 281 281 281 282
285 285 285 285 285 285 285 285 285 285 285 285 284 283 284 284 284 283 283 282 283 283 283 282 282 281 281 280 280 280 281 281 282 283 283 283 283 282 282 281 282 282 283 284 284 284 284 285 285 285 285 285 285 285 285 285 285 285 284 284 283 283 282 282 282 282 282 282 282 282 282 282 282 282 281 281 281 281 281 281 281 281 281 281 281 281 281
286 286 285 285 285 285 285 285 284 285 285 284 284 284 285 285 285 284 283 283 283 283 283 282 281 281 281 280 280 280 281 281 281 281 282 282 281 280 280 279 281 282 282 283 283 283 283 283 284 284 284 284 284 284 284 283 284 283 283 283 283 283 282 282 282 282 282 282 282 282 282 282 282 281 281 281 281 281 281 281 281 281 281 280 280 281 281
286 286 286 285 285 285 285 285 285 285 284 285 284 285 285 285 284 283 283 283 283 283 282 282 282 281 281 281 281 281 281 280 280 280 280 280 279 280 279 279 281 282 282 282 282 282 282 283 283 283 283 283 283 283 283 283 283 282 282 282 282 282 282 282 282 282 283 283 282 282 282 282 282 281 281 281 281 281 280 280 280 280 280 280 280 280 280
286 286 285 285 285 285 285 285 284 284 284 285 285 285 285 285 284 283 283 282 282 282 282 281 281 281 281 280 280 280 280 280 280 280 280 280 280 280 280 280 281 282 282 281 281 281 281 282 282 282 282 282 282 282 282 283 283 282 282 282 282 282 282 282 282 282 282 282 282 282 282 282 281 281 281 281 281 280 280 280 279 279 279 279 278 278 279
285 285 285 285 285 286 286 285 284 284 284 284 285 285 285 284 284 283 282 281 281 281 280 280 279 279 280 280 279 278 278 279 279 280 279 279 280 280 281 281 281 281 281 281 281 281 281 281 281 281 282 282 282 282 282 282 283 283 283 283 283 283 282 282 283 282 282 282 282 282 282 282 282 281 281 280 280 280 280 279 279 279 279 278 278 278 278
284 283 284 284 285 285 285 285 284 284 284 284 283 282 282 281 281 281 281 281 280 280 280 279 279 278 278 278 278 278 278 279 279 279 278 278 277 278 281 281 281 280 281 281 280 280 280 281 281 281 281 281 281 281 281 281 282 282 282 282 283 282 282 282 282 282 282 282 282 282 282 281 281 281 281 280 280 279 279 279 279 279 278 278 278 277 277
282 281 281 281 281 281 281 282 283 283 282 281 280 280 280 280 280 280 280 280 279 279 279 279 279 279 278 278 278 278 278 278 279 279 279 279 278 279 280 280 280 280 280 280 280 280 280 281 281 280 280 280 280 280 280 280 280 280 280 281 281 282 281 281 281 281 281 281 281 281 281 281 280 280 280 279 279 279 278 278 278 278 278 277 277 277 277
279 279 279 278 279 279 279 280 280 280 279 279 279 278 279 279 279 279 279 279 279 279 279 278 278 278 279 279 278 278 278 277 278 279 279 279 280 280 280 280 280 280 279 279 279 279 280 280 280 280 280 280 279 279 279 279 279 279 279 279 279 280 280 280 280 281 280 280 280 280 280 280 280 279 279 278 278 278 277 277 276 276 277 277 276 276 276
280 280 278 278 278 278 278 279 279 278 278 278 277 277 277 278 278 278 278 278 278 278 278 278 278 278 278 278 278 278 278 278 276 277 279 279 279 279 279 278 279 279 279 278 278 279 279 279 279 279 279 279 278 278 278 278 277 277 277 278 278 279 279 279 279 279 280 280 279 279 279 279 279 278 278 277 277 277 277 276 276 276 276 275 275 275 275
280 279 278 277 277 278 278 277 277 277 277 277 277 277 277 277 277 277 277 277 277 277 277 277 277 277 277 278 278 278 278 279 277 276 278 279 278 278 278 278 278 278 277 277 277 277 278 278 278 278 278 278 277 277 277 277 277 276 276 276 276 277 278 278 278 279 279 278 279 278 278 278 278 277 277 277 276 276 276 276 275 275 275 275 275 274 274
279 279 278 279 278 278 277 276 276 276 276 276 276 276 276 277 276 276 276 276 276 276 276 276 276 276 276 277 277 277 278 278 278 278 278 278 278 278 278 277 277 277 277 276 276 276 276 277 277 277 277 277 277 276 276 276 276 276 275 275 275 275 276 277 277 278 278 278 278 277 277 277 277 277 277 276 276 275 275 275 275 275 275 274 274 274 273
279 279 279 278 278 278 277 277 277 276 276 276 276 275 276 276 275 275 276 276 275 275 275 275 275 276 276 276 276 277 277 277 278 278 277 277 277 278 278 277 277 276 276 275 275 274 274 275 276 276 276 276 276 276 276 275 275 275 275 275 275 274 274 275 275 276 276 276 276 276 276 276 276 276 276 275 275 275 274 274 274 273 273 273 273 273 273
281 280 279 277 277 277 277 276 276 276 275 275 275 275 275 275 275 275 275 277 275 275 275 275 274 275 276 276 276 276 276 276 276 276 277 277 276 276 276 276 275 275 275 274 274 274 274 274 275 276 277 276 276 275 276 276 275 275 275 275 274 274 274 274 274 275 275 275 275 275 275 275 275 275 274 274 274 274 273 273 273 273 273 273 273 273 273
Wind_Speed
4 3 7 2 2 3 4 5 5 6 6 3 7 6 5 6 5 9 5 6 5 5 7 7 7 5 3 4 0 1 2 0 1 1 1 3 4 4 5 5 5 5 6 5 6 6 5 5 7 6 5 5 5 6 4 4 5 6 5 4 5 5 5 7 9 10 9 8 8 8 8 9 10 11 12 12 11 11 10 10 9 10 9 9 8 7 6
4 5 3 3 4 3 2 5 6 8 5 8 9 8 5 9 7 9 6 7 10 7 6 8 6 5 4 3 2 2 1 1 0 0 1 2 4 4 4 5 4 4 4 5 5 6 6 6 7 8 8 7 7 7 8 7 6 6 6 8 6 5 6 8 8 7 8 8 9 10 11 12 12 12 11 10 11 12 11 10 9 9 9 8 9 9 7
5 4 5 2 4 5 4 6 6 4 4 4 4 3 3 2 6 5 4 5 10 7 6 5 2 0 1 2 3 2 1 1 1 1 0 1 3 4 4 5 5 4 4 4 4 5 5 5 5 5 5 6 7 8 8 8 8 7 5 7 7 7 7 6 7 6 6 8 8 11 11 11 11 7 5 6 7 8 9 9 9 9 9 9 8 7 8
4 3 4 7 2 4 7 7 4 4 5 6 4 4 7 6 7 5 3 4 8 8 5 3 0 0 1 4 4 2 2 3 3 2 1 1 2 3 4 5 5 6 6 6 5 5 5 5 5 4 5 5 5 7 7 7 9 8 8 6 7 8 7 8 7 6 7 7 8 10 9 8 6 7 7 6 7 6 7 8 8 9 10 10 9 8 7
5 2 5 7 5 6 12 8 6 13 10 9 5 3 3 7 5 4 5 10 6 6 7 8 5 3 4 3 4 2 1 3 3 2 0 1 2 3 4 5 5 5 5 6 6 6 5 5 5 5 4 4 6 6 7 7 6 7 8 8 8 8 7 7 7 7 6 7 8 7 7 7 8 9 10 11 12 12 10 8 8 10 10 10 9 8 9
1 0 2 0 1 9 10 3 6 13 13 12 11 8 8 8 8 7 6 7 2 3 6 9 8 6 2 1 2 1 1 2 3 3 3 2 3 4 4 4 5 6 6 6 6 6 6 6 5 5 4 5 6 5 6 6 5 7 6 8 8 9 8 7 7 6 6 7 7 6 6 7 9 9 10 9 5 5 8 6 8 8 9 10 9 9 9
3 1 1 1 8 9 2 3 1 1 4 3 12 12 7 3 2 1 1 0 4 7 5 4 3 3 2 3 5 7 3 3 4 4 2 3 3 4 5 5 5 5 5 6 6 7 6 5 4 4 5 5 6 5 5 7 5 7 7 7 8 8 8 9 6 6 6 6 6 6 8 9 10 12 12 11 13 11 10 10 10 10 9 9 8 8 8
1 1 2 1 6 3 4 3 3 2 2 1 1 4 3 2 1 0 1 1 1 1 0 1 1 2 4 6 5 6 6 4 6 5 5 4 3 5 5 5 6 6 6 6 7 9 6 5 6 5 7 6 6 7 4 6 7 6 7 7 7 7 8 8 7 6 6 6 7 8 9 9 10 10 11 14 13 10 8 7 7 8 7 8 9 8 7
3 2 5 9 4 8 4 2 3 3 1 2 1 3 2 3 0 1 2 2 0 1 1 2 3 3 2 4 9 4 4 4 5 7 7 5 5 5 6 5 7 7 6 7 8 6 6 7 8 9 8 7 7 9 8 7 7 7 6 7 7 7 8 8 7 6 7 7 8 9 10 11 12 12 12 9 9 10 11 9 9 9 9 8 8 8 7
3 2 4 3 2 4 4 3 2 2 2 2 2 1 3 2 3 1 3 2 1 3 3 2 0 1 3 4 5 7 5 3 6 7 7 6 6 5 5 5 6 7 7 7 6 6 7 7 8 9 9 9 10 10 10 9 9 9 5 7 7 7 8 8 7 6 6 8 8 9 9 12 12 10 6 6 9 9 11 10 9 9 7 6 6 6 7
2 0 2 3 1 4 3 3 3 5 1 2 2 3 1 0 0 1 0 2 3 3 4 1 2 2 1 5 6 8 6 6 4 7 8 7 6 6 6 7 8 8 8 7 7 6 6 8 10 9 9 9 9 10 10 10 9 10 8 7 8 8 8 7 7 7 7 8 9 10 11 10 10 10 9 9 7 6 8 8 8 7 7 7 5 4 6
2 2 1 4 3 1 0 3 4 5 2 3 3 2 4 3 5 1 1 3 4 4 3 2 3 4 4 6 7 5 6 4 4 3 6 6 7 8 8 7 8 8 7 5 6 7 8 11 10 9 9 9 10 10 11 9 10 10 9 8 9 8 8 7 6 6 7 9 10 10 10 9 9 10 10 10 11 10 9 8 8 6 6 7 8 7 5
2 3 4 2 5 2 3 2 5 5 2 1 1 5 1 2 4 3 2 4 4 3 3 5 4 7 8 7 6 5 6 6 7 5 6 8 7 8 8 9 7 6 7 8 9 10 9 9 8 8 8 9 11 10 10 9 11 10 8 8 8 8 8 7 6 7 7 8 10 11 11 11 10 8 9 11 10 10 9 7 7 7 7 6 6 5 4
2 3 2 6 3 4 1 3 2 3 0 1 3 1 3 3 4 4 4 5 5 3 4 5 7 7 7 6 5 7 8 7 9 8 9 7 6 7 8 9 7 7 8 7 9 9 9 10 9 9 8 10 11 11 10 12 12 9 8 8 8 8 7 7 7 6 6 4 4 6 6 7 10 10 9 9 8 8 7 8 8 7 5 5 5 3 3
1 1 1 2 2 0 2 1 2 2 2 3 3 6 4 3 4 4 4 4 6 4 5 6 8 8 8 8 8 7 8 8 10 10 8 9 10 10 8 7 7 8 9 10 10 10 9 7 7 8 9 12 12 11 12 14 10 9 9 8 8 8 8 7 6 7 7 9 9 9 9 7 7 6 6 7 6 6 8 7 7 7 6 5 4 4 3
2 1 2 2 2 1 0 1 1 1 1 4 6 3 7 5 4 4 3 4 5 4 5 6 6 6 6 8 8 8 9 8 9 8 8 8 9 10 9 8 9 6 9 10 10 10 9 7 7 8 9 12 12 13 15 11 9 9 8 7 7 7 6 5 6 7 8 9 9 8 10 11 10 8 6 6 5 3 6 6 6 5 4 4 3 3 4
1 3 3 6 5 4 2 1 2 2 6 7 6 6 7 7 6 3 2 5 5 4 5 6 6 7 7 9 8 8 11 11 11 11 11 10 10 11 12 13 10 7 10 12 11 11 9 8 9 10 10 12 14 15 14 9 10 9 8 7 7 6 5 6 7 8 9 10 11 11 10 12 11 8 7 5 5 2 4 5 5 6 5 4 5 5 3
3 5 8 5 8 6 5 3 3 5 7 9 6 5 6 5 7 3 4 4 5 6 5 5 6 7 8 10 11 11 11 11 11 10 11 11 10 10 10 10 10 10 10 10 11 13 13 9 10 10 11 11 14 15 11 9 9 8 7 6 5 5 6 8 10 11 10 9 11 12 11 8 10 9 9 6 6 5 4 4 5 5 5 5 5 4 4
4 4 3 1 3 4 5 6 7 6 5 6 4 4 5 6 5 5 5 6 6 7 6 7 9 11 10 10 11 10 11 12 12 11 11 12 12 12 13 14 10 9 8 10 12 13 14 11 10 11 11 11 12 11 10 8 8 7 6 6 6 6 8 8 9 11 14 12 10 10 10 9 7 6 6 7 7 6 5 6 4 4 5 4 3 3 5
5 6 4 8 10 9 8 8 8 10 10 8 6 4 5 5 5 4 7 5 7 5 7 8 9 11 10 10 12 11 11 11 11 11 11 12 13 13 11 12 10 10 10 12 13 13 14 13 10 10 10 11 10 10 9 8 8 7 7 8 9 9 11 11 10 10 10 11 12 10 9 9 8 6 4 5 7 6 6 6 5 5 4 4 5 5 4
4 6 10 11 8 8 10 7 4 6 6 6 9 10 8 7 7 9 9 6 7 7 11 10 9 11 13 11 12 12 12 11 11 11 11 12 12 12 12 12 10 10 11 12 13 13 14 12 11 11 11 10 8 9 9 7 7 8 9 10 11 12 11 11 11 11 12 11 9 8 7 6 6 6 8 6 6 5 4 6 7 7 6 5 5 4 3
5 6 8 5 7 7 8 11 8 6 6 6 8 7 7 8 9 9 9 11 8 7 9 9 9 11 13 13 11 12 12 12 13 13 13 12 11 11 11 10 10 11 12 13 14 14 13 11 11 10 8 3 1 1 2 5 7 9 10 11 12 11 10 10 10 11 10 10 9 8 7 6 6 3 3 3 5 7 6 6 3 5 6 2 3 4 2
6 6 10 6 7 9 10 12 11 5 5 6 8 10 10 10 8 6 7 10 11 10 9 8 9 12 13 15 11 11 12 13 12 12 12 12 11 11 10 9 11 12 13 13 12 13 12 11 10 7 3 2 1 1 1 3 7 9 11 11 10 9 8 9 10 10 10 9 9 8 8 8 7 7 5 2 4 6 8 7 6 4 4 7 6 4 1
10 9 10 9 7 10 12 9 7 8 6 7 11 11 9 9 9 8 8 8 10 12 12 10 8 11 13 13 11 13 14 13 12 12 11 11 11 11 10 10 12 13 13 12 11 12 11 9 8 3 4 4 3 3 4 5 6 11 13 13 10 9 9 8 10 10 9 9 8 7 6 7 8 8 8 7 5 6 6 7 6 6 6 6 6 7 6
9 9 10 10 11 14 12 10 9 7 8 9 9 9 8 8 8 7 9 10 8 11 12 12 11 8 10 12 10 11 12 12 11 11 11 10 11 11 11 11 12 13 11 10 9 9 8 8 3 7 6 6 4 5 6 8 9 10 10 11 12 10 9 8 9 9 9 9 8 8 7 7 7 7 7 7 6 4 5 7 10 12 10 9 9 9 8
9 10 11 11 11 12 11 10 12 9 8 4 4 4 6 7 8 7 9 10 9 8 10 10 11 12 8 9 9 9 9 10 10 9 8 8 8 9 10 12 12 9 8 8 7 5 2 3 9 9 9 6 6 7 9 10 11 11 11 11 11 9 8 8 8 8 8 7 7 7 6 7 7 7 6 6 6 6 6 4 4 7 9 10 9 8 5
7 8 10 13 12 11 7 9 8 1 4 6 8 10 9 7 8 7 8 8 9 9 9 10 10 10 8 7 8 9 8 7 5 5 6 8 9 10 11 10 8 7 7 5 1 5 7 10 11 10 8 7 7 9 10 11 11 11 10 9 6 6 8 7 7 7 7 7 7 7 6 6 6 7 6 5 6 6 5 6 6 6 3 4 5 5 1
8 8 6 9 11 12 11 9 7 6 7 9 9 7 6 5 6 7 8 8 8 7 7 7 8 7 6 5 2 3 3 4 5 6 7 8 9 9 9 8 7 6 2 4 6 7 8 9 10 10 10 8 8 8 8 7 6 5 4 4 4 4 4 5 6 7 7 7 6 7 6 6 5 6 6 6 6 6 5 5 6 4 2 1 0 3 4
6 7 7 9 12 14 12 9 8 8 8 6 5 4 4 5 7 7 8 7 8 8 9 7 4 3 2 3 4 5 5 5 6 8 8 8 8 7 7 2 4 6 7 7 8 7 9 9 10 10 9 8 7 6 4 2 2 3 4 5 5 6 5 5 6 6 6 6 6 6 6 6 6 6 5 5 5 5 5 5 3 3 3 1 1 1 2
9 7 8 9 9 10 10 9 7 6 5 6 6 5 4 6 8 8 8 9 7 7 7 5 2 5 5 5 6 6 6 6 6 6 6 7 7 8 7 3 7 10 9 9 7 6 7 8 8 8 7 6 6 6 3 2 3 4 5 5 6 7 6 6 6 6 7 6 6 7 7 6 5 6 6 5 5 6 6 4 4 4 3 2 2 1 0
8 8 10 9 8 9 7 6 6 7 6 6 6 7 6 5 7 8 8 6 5 4 4 5 6 6 7 7 6 6 6 6 6 6 6 6 8 8 8 9 9 8 9 7 7 7 8 7 6 3 1 4 6 5 4 4 4 4 4 4 4 6 9 9 7 7 6 6 6 7 6 6 5 6 5 5 4 4 4 4 4 3 3 2 1 0 1
10 9 10 8 8 10 9 7 7 8 8 7 7 9 8 8 10 10 6 4 6 7 7 9 10 9 8 7 7 6 6 6 6 6 7 9 8 8 9 9 10 11 10 10 9 7 6 6 6 3 1 3 3 3 4 6 5 5 4 5 6 5 7 10 7 7 7 6 6 6 5 5 4 4 4 4 4 5 5 5 5 4 3 3 1 1 3
10 11 10 11 11 10 10 8 6 8 9 9 7 7 8 6 3 7 7 7 8 8 9 9 8 8 7 7 8 8 7 4 5 9 9 9 8 8 8 9 10 12 12 10 9 8 8 7 5 4 4 5 7 6 5 5 4 5 4 5 6 6 6 7 8 7 7 6 5 5 5 6 5 6 4 5 5 4 4 4 3 3 2 3 4 5 5
9 8 10 11 8 8 9 10 9 9 8 6 6 5 7 8 8 8 8 9 10 10 10 9 8 7 7 8 8 8 7 8 11 9 9 9 10 8 8 8 10 13 13 13 13 11 10 8 6 6 5 7 8 7 6 5 4 5 6 6 7 7 7 7 7 7 7 6 6 7 7 7 7 6 5 6 4 4 5 4 5 5 5 4 5 5 6
7 8 8 8 8 8 8 7 7 6 6 7 7 9 9 9 10 11 10 11 11 9 7 7 7 7 8 9 10 9 10 10 8 9 10 11 11 10 9 11 12 14 16 16 14 11 9 8 7 8 9 10 10 7 5 4 6 8 7 8 8 8 7 7 7 7 7 5 5 7 7 7 6 6 6 5 5 5 5 6 6 6 6 5 5 4 6
8 7 6 6 6 6 5 5 5 7 7 7 9 9 9 9 11 11 13 11 7 6 8 9 8 9 11 11 11 11 10 10 10 11 12 12 10 10 14 15 15 15 15 15 15 12 11 11 15 16 12 11 9 7 4 4 8 8 8 8 8 8 7 8 7 7 5 6 8 8 7 7 7 7 6 5 5 5 6 6 6 6 6 5 5 5 6
6 6 5 5 5 5 7 7 7 7 8 8 8 9 11 11 11 10 9 7 8 8 7 7 10 12 11 9 7 7 10 10 10 11 11 10 11 15 17 17 16 14 14 14 13 12 11 12 15 18 13 10 9 8 9 8 7 6 7 8 8 8 8 8 7 7 7 7 7 7 7 7 7 6 6 6 6 6 7 7 7 6 6 4 5 6 6
6 6 6 5 5 7 7 7 7 7 9 10 10 10 10 9 8 9 9 9 8 8 8 10 10 8 8 8 10 12 11 11 11 12 13 13 13 17 16 15 13 12 12 10 9 8 9 10 14 13 11 9 9 9 11 12 8 8 8 8 7 7 8 8 7 7 7 7 7 8 7 7 6 6 6 6 6 7 6 6 5 5 5 5 6 6 6
7 5 5 5 6 7 8 8 8 8 9 11 10 9 8 8 8 9 8 8 7 7 8 9 8 11 12 12 12 12 13 13 12 13 13 13 13 16 13 11 10 10 8 7 8 9 11 12 11 11 10 9 9 9 10 12 11 9 8 8 8 8 7 7 7 7 7 7 8 7 7 6 6 6 6 6 6 6 7 7 5 5 5 5 5 6 6
6 6 6 6 7 7 8 8 8 8 7 7 7 8 5 7 7 8 8 8 7 7 8 9 10 10 11 11 12 11 11 12 11 12 12 11 13 13 13 13 13 11 11 12 11 10 14 16 12 10 9 9 9 8 9 12 10 8 8 8 8 8 7 7 7 8 7 7 8 8 8 7 7 7 7 6 6 6 6 6 6 5 5 5 5 5 6
7 6 6 7 7 7 7 8 8 7 7 6 6 6 5 6 6 8 7 7 6 7 8 7 9 9 9 9 10 10 10 10 10 10 10 12 12 9 10 10 11 10 11 10 10 10 13 12 10 9 9 9 9 9 8 11 9 8 8 8 8 8 7 8 8 8 7 7 7 7 7 7 7 7 7 7 7 6 6 6 6 6 6 6 6 6 6
6 6 7 7 6 6 7 6 7 8 7 7 6 6 6 5 6 7 5 6 6 7 7 8 8 7 6 6 7 9 10 10 11 12 13 11 9 7 8 8 9 9 13 12 12 12 11 11 11 9 9 8 9 13 11 9 9 8 9 9 9 8 8 8 8 8 7 7 7 8 8 8 7 7 7 7 7 7 6 6 6 6 6 6 6 6 6
6 6 6 6 6 6 6 6 6 7 7 6 5 5 6 6 6 6 6 6 7 7 8 7 7 6 6 5 7 9 8 8 9 9 10 10 10 9 8 5 6 9 13 11 11 10 10 9 9 9 11 10 8 10 10 9 8 9 9 10 9 9 9 8 7 7 7 8 8 8 8 8 7 7 7 7 7 7 7 7 6 7 7 7 7 6 6
5 5 5 5 5 5 4 5 5 6 7 6 5 5 6 6 6 6 6 7 7 6 6 7 7 7 8 8 9 9 8 7 7 6 6 6 8 10 9 7 7 9 13 9 9 9 9 8 8 10 12 13 13 11 8 7 8 9 9 9 9 8 8 8 8 8 8 8 9 8 8 8 7 7 7 6 6 5 5 5 6 6 6 7 7 6 6
5 5 5 5 5 5 5 4 6 7 6 4 5 6 6 6 6 5 5 6 7 6 6 6 7 7 7 8 8 7 7 7 7 6 7 8 8 8 8 7 8 7 9 11 8 8 7 8 10 13 12 14 13 11 8 8 8 8 8 7 7 7 7 7 7 6 7 7 7 7 7 7 7 6 6 5 5 5 5 5 5 5 5 5 6 6 7
5 4 3 5 5 4 3 3 3 3 5 6 7 6 5 5 5 5 5 6 6 6 5 5 6 6 6 7 6 6 6 7 7 7 7 6 6 3 5 6 7 7 11 12 8 7 7 12 13 13 13 13 11 9 8 7 7 7 7 6 6 6 5 5 5 5 6 7 7 6 6 6 6 6 5 5 5 5 5 6 5 5 5 5 5 6 6
2 3 3 3 3 3 4 4 4 5 4 5 6 5 4 4 5 5 5 5 6 6 6 6 6 5 5 4 3 5 6 6 6 6 6 5 5 5 7 8 9 11 10 8 8 8 8 9 10 12 12 12 11 7 6 7 7 7 7 6 6 5 5 5 5 6 6 6 7 7 7 7 6 5 5 5 5 5 5 5 5 5 5 5 5 6 6
2 1 2 2 3 2 3 4 5 4 4 4 3 4 3 4 5 5 4 5 6 6 6 6 6 6 6 5 5 4 3 4 6 5 5 5 5 5 6 6 7 9 9 8 10 10 15 15 14 14 13 11 8 7 7 6 6 7 6 6 5 6 6 5 5 6 5 6 6 6 5 5 5 5 5 5 5 5 5 5 5 5 6 6 6 6 7
3 3 3 2 2 3 3 3 3 4 3 1 3 3 2 4 5 5 4 5 6 6 6 5 6 5 5 5 6 6 6 4 3 3 2 4 5 5 5 6 9 9 7 6 7 6 11 14 14 13 12 9 7 7 6 6 6 6 6 6 5 5 6 6 6 5 6 6 6 6 6 6 5 5 5 5 5 5 5 5 5 5 6 6 5 6 6
3 4 4 4 3 3 4 3 2 3 3 3 3 3 2 3 5 4 3 5 5 5 5 5 4 5 5 5 5 5 5 5 6 5 5 5 5 5 5 6 6 8 7 6 6 5 7 11 11 11 9 6 6 6 6 6 6 6 5 6 6 6 6 6 7 8 6 6 6 6 6 5 5 6 5 5 5 5 5 5 5 6 9 7 6 6 6
5 5 6 5 5 4 3 4 5 5 4 4 4 2 3 4 5 3 3 4 4 5 5 4 4 4 4 4 4 4 5 5 5 5 5 5 5 5 5 5 6 5 6 6 5 5 5 4 5 6 6 5 5 5 5 6 6 6 6 6 6 6 6 6 6 6 6 6 5 5 5 5 5 5 5 5 5 5 5 5 5 5 6 5 6 6 6
6 4 4 4 5 4 3 3 4 4 3 4 4 4 5 5 5 4 3 3 3 5 5 5 4 3 3 3 4 4 4 5 5 5 4 4 4 4 5 5 5 5 6 5 4 5 4 5 5 6 6 5 4 4 5 7 6 5 6 6 5 6 6 6 6 5 5 6 5 5 6 5 5 5 5 5 5 5 5 5 5 5 5 5 5 6 6
Wind_Direction
247 243 254 279 327 234 225 201 196 215 218 148 187 221 200 139 183 230 232 188 198 249 223 219 218 206 206 204 210 248 258 228 18 26 14 360 349 345 6 358 1 1 359 350 349 352 348 354 360 359 0 356 357 355 356 352 345 342 337 333 312 271 244 226 220 212 208 204 201 197 196 189 189 194 189 182 170 160 162 159 157 154 151 145 143 142 144
308 299 258 259 217 266 280 247 214 221 189 205 203 215 196 186 219 225 214 177 221 213 223 218 221 199 201 229 259 322 21 350 336 357 10 4 347 354 344 335 330 327 327 326 328 333 339 347 345 347 348 348 348 346 339 341 341 331 345 332 322 297 257 247 239 227 211 200 195 194 194 197 199 200 193 177 165 163 163 158 152 146 142 145 146 149 144
275 275 298 250 216 196 252 255 249 240 240 261 233 228 252 235 282 279 232 204 243 254 217 218 241 342 334 314 287 249 235 220 199 189 80 344 335 327 325 327 326 310 294 295 302 315 313 322 322 319 318 326 331 332 334 335 332 330 338 322 317 307 288 262 248 234 217 210 199 200 201 201 204 198 189 163 158 152 147 148 147 146 141 139 141 144 143
278 229 237 264 284 222 232 247 246 243 225 232 212 203 210 168 222 237 229 259 261 257 231 237 298 337 208 216 233 238 213 204 196 165 162 309 307 308 312 311 316 320 319 315 311 301 303 302 306 311 316 317 322 316 319 320 320 323 322 312 304 298 285 283 268 234 222 212 206 209 200 194 150 138 139 140 137 139 150 151 150 144 143 146 145 144 141
253 235 222 253 285 341 283 246 208 222 212 206 224 265 168 208 193 210 215 238 227 210 175 162 209 201 241 255 238 235 236 213 195 186 199 242 265 275 288 299 304 300 297 295 293 296 298 296 293 285 279 302 305 303 308 299 305 312 309 307 302 296 291 278 267 248 226 215 214 204 189 167 158 151 154 162 168 164 172 160 145 146 147 140 143 143 144
256 322 272 348 41 256 244 235 217 192 206 213 223 236 220 224 174 208 204 241 228 153 148 177 193 189 220 210 250 196 192 218 244 254 243 238 258 278 279 262 266 277 285 284 279 272 273 274 268 271 273 272 275 281 286 294 298 293 295 298 298 298 298 283 265 249 229 218 211 194 172 162 159 162 167 160 124 120 134 144 146 140 140 140 143 149 156
279 351 54 4 243 253 291 278 301 313 313 239 212 228 241 258 226 249 286 263 174 195 173 168 173 198 275 338 315 306 257 203 216 225 235 251 249 267 277 289 284 275 273 282 287 290 283 274 275 285 287 273 278 286 286 294 289 289 288 287 292 294 294 290 272 244 226 214 200 178 175 171 169 173 170 157 163 167 155 154 149 147 151 149 157 159 160
66 87 109 162 240 264 304 301 323 298 93 139 134 299 301 357 208 255 13 348 2 20 37 293 358 4 321 332 295 263 268 202 215 225 244 250 261 276 269 265 274 277 278 279 286 287 290 299 295 287 286 291 295 287 277 275 283 276 278 281 284 290 286 281 270 242 212 202 187 174 173 172 172 172 174 176 163 149 143 137 131 134 149 150 156 160 161
205 193 181 228 314 320 316 359 10 5 344 352 85 195 283 313 266 169 143 122 5 16 303 297 354 352 25 9 312 278 246 248 218 222 240 229 238 239 260 259 267 269 273 275 275 278 287 294 300 297 296 297 291 293 295 288 281 276 273 275 277 276 277 274 262 237 207 193 184 178 172 170 176 179 179 173 149 141 137 143 146 155 158 166 160 153 158
130 221 312 328 339 266 286 244 292 270 244 211 240 92 313 333 338 139 110 147 195 245 289 323 311 46 50 334 287 291 299 242 243 252 255 275 270 263 267 280 273 270 272 277 275 261 272 283 283 287 291 296 298 298 296 292 290 284 273 273 272 271 270 268 255 231 204 187 184 178 175 179 183 179 159 133 140 140 140 147 155 162 158 132 134 150 150
49 88 175 222 181 247 213 260 276 287 223 202 174 85 189 124 331 274 123 322 269 233 250 248 109 86 209 234 251 268 271 279 240 243 260 262 267 265 260 257 267 271 267 258 261 269 273 279 280 281 285 288 290 288 288 287 285 285 280 274 272 270 269 261 246 218 200 190 184 181 181 180 166 148 140 144 134 125 131 138 146 142 141 135 142 164 180
218 163 195 259 201 227 273 243 278 289 52 149 85 248 273 269 308 303 179 273 276 271 232 152 150 161 222 262 258 241 246 237 256 220 248 260 262 262 256 256 246 256 266 271 267 262 263 264 270 278 284 285 279 278 279 278 277 275 273 268 268 267 266 259 239 213 198 191 186 180 174 160 154 145 138 135 139 142 143 138 146 153 137 149 165 184 194
246 172 260 330 309 275 253 260 281 309 301 83 205 214 234 250 252 256 208 266 258 253 226 160 201 225 216 242 262 297 303 308 286 252 241 244 246 257 257 257 260 257 249 241 247 252 258 266 273 277 280 280 278 275 274 274 271 268 266 265 264 264 261 252 230 212 199 195 187 185 174 162 154 148 148 141 139 142 140 135 142 146 148 155 164 180 191
238 220 164 235 247 240 202 276 224 253 45 219 218 229 216 252 262 242 203 232 260 221 228 212 221 250 257 268 286 283 281 269 270 276 277 275 262 246 248 259 262 257 254 252 254 260 258 262 267 271 271 271 272 273 274 268 266 269 263 260 260 261 257 244 223 199 170 103 107 107 100 126 146 148 138 129 143 141 140 145 146 146 140 147 161 187 213
50 56 244 350 269 265 180 241 347 16 79 228 259 298 282 203 252 252 260 216 243 195 246 239 247 262 277 274 271 265 267 274 278 280 285 286 286 286 281 274 247 242 262 259 255 252 257 255 256 257 258 263 266 267 264 264 266 261 257 255 254 254 251 234 201 166 147 141 134 130 129 126 110 87 97 121 123 135 135 133 132 137 148 150 161 193 241
237 179 165 190 206 202 294 47 267 214 217 275 279 265 292 282 218 229 239 246 227 219 224 257 266 258 264 284 282 289 290 283 283 281 277 277 281 281 271 259 266 252 253 257 261 264 262 254 246 246 245 255 259 261 261 263 259 257 255 250 249 249 236 200 166 150 142 134 127 128 131 122 112 99 88 90 91 107 131 131 129 128 141 145 155 193 233
154 223 220 269 267 215 276 181 215 272 294 286 274 267 258 267 268 202 266 275 284 277 284 288 282 295 284 279 283 285 286 289 288 288 284 279 279 280 282 282 279 266 256 265 269 270 261 253 252 248 242 247 255 257 259 254 251 251 249 248 242 226 187 162 146 138 136 135 133 129 121 117 118 123 118 120 108 98 118 118 130 144 156 153 180 210 224
279 263 236 262 299 303 297 261 235 278 290 291 281 253 262 247 244 245 257 287 288 298 289 285 289 266 269 279 288 286 284 283 281 281 286 284 278 274 275 276 270 262 264 264 267 273 275 255 251 250 247 242 252 255 253 245 241 239 238 232 216 184 162 150 145 138 130 131 127 114 105 109 127 140 142 134 135 139 130 134 152 145 146 159 184 194 229
31 282 339 280 252 277 287 289 285 272 242 248 270 271 237 249 266 277 259 250 266 268 278 267 268 276 276 279 277 278 282 282 282 281 280 282 280 281 281 275 276 276 265 271 272 273 276 273 260 259 255 251 250 253 245 235 233 226 216 198 179 156 143 140 143 143 138 141 124 111 122 119 102 108 130 133 133 143 145 148 141 131 143 156 168 197 237
241 259 285 295 292 286 293 290 295 297 305 307 306 272 244 249 261 254 264 275 278 272 282 276 277 280 283 281 281 281 279 276 276 276 273 273 277 273 265 272 272 269 267 265 270 272 273 275 271 268 266 262 256 249 240 231 225 205 190 175 163 155 146 142 137 129 120 111 117 124 120 112 116 131 135 136 146 166 169 168 153 166 166 177 201 213 230
275 289 285 274 293 293 284 289 254 248 256 278 294 298 302 308 308 298 292 273 271 285 280 286 285 285 282 274 271 273 275 278 274 269 266 266 265 270 275 271 263 260 264 267 265 269 271 275 276 273 269 266 260 257 247 229 200 183 176 165 154 148 145 138 134 130 125 125 116 112 118 130 146 158 161 166 181 189 214 174 163 165 181 195 202 199 183
285 256 279 305 315 300 303 290 284 275 263 266 276 286 289 283 279 277 282 286 279 265 265 266 266 264 268 269 266 266 268 268 272 273 271 270 269 267 262 263 265 265 263 264 268 269 271 272 272 271 268 267 302 285 213 197 182 173 162 153 145 144 142 135 131 131 129 124 124 132 143 142 129 87 324 228 187 155 192 204 136 101 124 157 183 168 163
260 259 265 262 252 271 258 271 285 272 276 279 279 274 271 276 272 268 273 281 288 279 264 244 246 254 258 266 270 270 268 267 265 267 269 272 268 265 265 268 268 263 264 265 268 272 271 270 267 258 182 163 100 33 116 182 174 154 145 136 131 127 124 127 130 126 122 130 147 158 155 147 140 136 128 105 84 80 100 121 159 168 129 143 146 141 134
274 275 278 283 281 277 285 281 281 287 275 259 265 270 273 271 272 270 262 255 264 277 277 269 242 250 263 264 265 266 270 270 272 272 266 259 258 263 267 261 264 268 270 270 268 267 267 262 262 186 134 89 70 78 82 98 126 133 132 129 128 126 123 123 120 121 126 144 158 147 139 133 135 135 139 125 88 50 88 125 138 148 157 142 133 130 127
272 285 288 285 281 282 280 282 278 267 269 268 268 265 259 263 264 257 261 266 252 257 272 280 278 261 258 267 261 262 267 272 271 269 269 268 265 263 262 262 261 261 263 262 261 264 270 266 200 134 105 91 85 84 93 109 116 112 113 115 116 113 112 110 111 125 143 161 153 137 134 126 126 134 137 139 130 108 58 58 78 81 83 89 102 113 118
262 275 281 282 284 277 283 291 281 262 258 266 272 273 264 257 264 270 265 263 268 265 266 271 278 279 264 265 269 267 268 267 268 270 275 275 276 269 262 255 255 254 255 257 268 284 293 139 118 110 101 93 81 81 88 93 99 100 101 105 110 115 118 127 142 156 152 142 134 131 130 132 137 138 139 136 137 134 112 87 64 60 59 58 77 102 115
271 269 283 290 282 278 262 245 267 264 305 294 276 273 273 271 271 270 269 268 264 267 269 273 270 275 284 275 269 265 260 277 290 292 288 287 281 275 271 270 259 249 248 260 345 70 87 104 105 104 99 89 80 81 86 94 99 106 115 120 118 116 140 155 158 145 138 135 130 127 125 129 131 128 130 139 143 134 134 135 132 115 97 32 24 59 63
274 277 259 268 279 283 282 269 266 287 285 274 271 272 277 286 291 291 291 293 297 292 290 281 278 287 294 296 289 300 301 314 320 315 312 305 309 301 289 265 238 224 194 102 87 89 94 104 109 107 110 114 115 121 127 119 105 116 116 136 133 141 162 162 143 134 135 131 131 135 136 127 120 120 134 137 124 119 110 103 110 118 74 347 272 300 326
289 288 283 267 271 277 279 279 278 278 273 266 263 268 288 303 296 293 291 290 291 294 291 301 308 275 305 353 359 350 340 342 341 341 329 315 305 315 325 359 98 94 87 89 89 91 96 101 108 120 138 150 153 158 167 133 127 132 137 154 148 158 166 162 142 132 123 117 112 104 99 111 115 113 114 109 102 99 99 109 112 91 108 87 6 4 354
308 301 296 297 297 296 288 286 291 293 290 295 298 301 296 291 293 293 292 291 290 293 294 299 346 35 21 24 14 11 9 356 339 331 334 331 339 358 357 2 77 66 64 61 67 65 71 90 112 130 151 166 176 188 187 165 169 148 148 165 164 159 163 150 130 113 108 98 92 94 100 99 105 116 116 111 105 113 115 122 132 140 144 130 121 139 281
313 312 312 312 332 332 326 323 320 308 305 305 301 294 292 275 269 277 287 299 318 325 25 45 40 33 28 22 8 358 351 348 344 339 346 1 19 20 30 40 64 69 62 54 55 61 72 69 63 46 294 211 194 191 160 145 129 111 107 99 98 101 103 101 102 111 108 102 98 99 102 110 122 120 126 121 104 103 113 128 140 144 136 141 144 188 275
320 323 326 325 326 322 324 323 325 322 316 313 312 308 303 303 297 296 314 19 30 40 44 44 40 33 24 10 4 358 359 356 354 11 23 29 30 31 45 56 68 71 67 59 53 52 60 68 52 348 309 137 132 124 117 111 119 118 118 127 120 100 100 102 92 85 93 95 100 104 117 107 81 84 97 102 130 136 144 136 144 151 152 133 86 314 294
331 328 335 335 333 329 327 318 316 311 311 312 305 298 293 293 15 53 49 55 55 46 47 45 39 29 17 21 18 9 356 340 18 33 27 26 31 38 47 57 62 65 60 53 49 44 43 44 26 3 38 89 90 79 71 74 92 110 111 95 87 80 75 75 93 92 78 78 76 87 84 78 83 79 84 96 95 92 97 98 103 94 67 37 10 349 359
328 318 315 311 313 313 312 309 314 313 321 334 341 355 42 58 60 64 62 60 57 52 47 42 33 25 30 30 22 14 6 28 32 23 18 25 30 31 41 58 65 66 60 49 42 35 27 21 17 35 43 65 76 74 74 87 109 98 91 88 85 85 80 75 77 83 87 77 86 78 75 74 66 72 78 79 81 88 84 79 73 66 60 39 20 1 2
322 319 313 313 312 309 309 309 313 340 10 15 24 54 57 59 62 61 61 61 56 49 40 32 33 35 39 36 31 22 26 31 26 30 30 30 29 27 37 44 47 50 49 43 36 29 20 25 34 47 50 54 57 58 75 101 98 92 83 84 82 80 82 83 79 82 90 95 86 78 71 69 69 64 68 77 81 86 80 71 62 56 51 33 7 2 5
337 331 327 323 322 327 336 341 11 36 41 51 57 58 57 58 62 61 58 54 41 34 43 43 39 41 41 35 32 24 28 30 33 37 35 31 28 36 44 40 38 39 39 37 24 16 16 30 39 48 51 46 43 31 28 79 87 87 93 91 90 90 86 84 86 83 75 85 80 78 80 80 75 67 64 71 70 67 69 66 58 53 51 37 21 7 0
354 344 336 338 349 9 29 27 43 59 61 63 65 66 64 59 62 59 55 44 38 37 36 41 44 42 37 32 29 29 36 36 39 43 41 34 35 44 42 40 33 31 33 34 3 359 14 27 35 48 48 45 38 31 16 34 83 82 92 86 91 90 89 84 76 81 75 70 78 82 79 73 67 61 54 56 58 56 58 59 55 50 45 33 22 20 13
3 2 3 356 17 30 40 47 51 67 77 72 64 64 62 64 59 61 55 51 45 38 39 41 41 38 34 28 30 32 31 30 34 40 42 38 34 47 40 37 26 19 27 16 343 2 18 23 38 48 46 43 38 35 31 28 57 73 75 75 80 80 83 86 84 76 75 72 71 71 68 67 68 61 54 51 50 50 48 48 44 40 36 28 24 21 14
12 4 0 6 30 50 64 64 59 58 61 74 74 68 63 67 67 63 58 46 36 33 44 42 37 41 37 35 31 22 18 19 22 30 35 35 38 51 51 42 32 24 14 348 2 22 21 26 36 40 41 35 36 35 33 29 36 59 64 69 67 69 68 73 76 77 70 71 69 68 67 64 62 61 55 50 49 47 48 42 38 33 29 19 13 9 4
21 14 7 23 48 51 67 66 65 63 57 56 73 76 64 66 64 65 61 56 42 41 50 52 49 49 44 42 40 35 26 25 24 28 30 34 38 41 37 31 22 13 9 15 23 26 26 30 35 37 32 28 32 36 35 33 36 49 56 61 62 62 61 64 67 68 65 66 68 68 67 65 63 62 58 53 49 44 37 31 29 27 24 18 13 4 356
25 17 18 40 49 52 64 70 66 58 55 52 52 55 49 62 68 67 59 58 49 49 51 52 62 57 51 51 52 49 42 38 37 33 34 42 38 30 37 26 4 6 9 18 27 30 34 37 34 34 27 28 32 32 40 37 43 47 48 52 56 57 58 57 59 58 60 62 64 65 65 66 62 58 54 51 47 41 36 29 26 20 16 12 8 1 356
21 30 43 45 52 59 68 71 75 69 56 49 50 54 54 56 66 70 63 62 59 54 59 53 54 62 58 50 56 56 50 42 45 46 45 45 37 31 41 28 4 6 10 22 28 32 31 32 32 32 28 30 34 34 41 47 49 49 54 52 56 54 59 60 63 64 65 66 65 65 61 60 58 56 51 49 45 39 34 29 24 20 15 12 6 1 355
23 31 44 47 51 55 63 72 79 81 74 53 46 50 58 61 68 72 70 66 63 63 61 59 53 52 52 51 56 57 47 38 45 48 57 53 47 43 46 21 11 15 18 32 31 37 32 31 31 32 31 36 39 38 46 50 53 56 58 58 59 61 62 63 66 67 65 68 66 65 62 60 58 54 50 47 45 40 37 33 27 22 19 12 6 1 357
25 30 35 44 51 56 70 72 75 75 75 57 40 45 53 57 54 64 69 69 64 58 64 60 53 50 46 46 54 50 35 24 31 25 51 55 50 39 28 24 16 19 23 32 36 38 36 32 31 32 37 42 42 44 49 48 52 59 60 59 57 57 59 61 61 64 65 66 67 66 64 58 54 52 49 46 42 39 40 35 35 30 24 20 16 8 4
34 29 41 57 59 61 62 69 87 90 93 84 63 53 51 57 53 46 60 65 64 58 54 56 56 55 56 56 60 56 48 36 26 9 39 40 44 29 10 16 23 22 23 30 38 38 37 32 35 39 43 42 43 43 45 49 52 51 50 53 52 54 57 59 55 51 50 54 56 57 56 54 52 48 49 43 39 35 27 24 25 18 15 13 9 5 4
34 26 36 56 60 62 53 58 50 75 88 84 71 53 47 59 67 60 55 67 70 59 55 54 60 57 67 75 75 67 62 50 38 33 42 46 62 27 6 28 27 30 32 33 32 29 29 28 36 42 43 44 45 48 48 45 48 51 49 49 53 60 51 43 50 50 49 52 53 51 52 53 52 47 40 37 32 29 31 28 24 19 20 15 7 358 352
53 30 34 49 54 47 57 60 64 71 77 79 78 69 42 55 66 66 65 64 70 67 59 57 56 51 44 51 69 85 81 65 45 30 32 35 41 41 32 32 34 35 34 34 31 26 21 19 23 28 37 42 47 48 43 44 44 43 46 45 44 42 39 39 43 48 48 51 53 55 54 53 53 50 44 37 30 27 24 22 21 19 14 13 6 360 354
115 70 33 42 68 53 64 68 75 75 74 93 105 97 79 78 75 71 69 73 68 65 59 53 51 46 43 49 45 41 44 87 82 33 9 28 39 45 39 36 33 36 36 35 34 25 22 24 26 29 31 34 39 43 43 43 43 46 45 40 41 47 51 48 47 47 47 47 49 50 48 48 47 48 45 37 30 24 19 21 19 17 16 13 11 1 355
163 152 131 99 87 85 87 88 98 100 110 101 104 106 100 93 83 72 66 69 70 63 56 51 48 47 44 47 49 49 42 31 86 116 23 39 48 46 39 38 38 38 35 36 29 22 21 25 28 28 31 36 38 37 38 39 43 43 43 39 26 29 40 47 44 47 50 49 48 50 49 48 46 44 40 37 30 22 17 15 19 19 16 11 5 1 358
170 132 130 131 137 141 139 120 143 160 154 139 139 143 148 110 88 69 69 78 86 83 66 48 41 39 48 51 49 49 47 59 59 64 66 59 57 57 50 48 46 46 47 45 35 24 17 23 26 28 28 29 34 35 36 38 38 42 41 39 36 33 26 33 51 49 46 47 46 46 45 45 44 42 40 37 31 24 19 16 12 15 19 18 9 357 349
171 181 187 178 178 178 167 170 171 165 157 163 156 127 114 106 119 117 106 109 104 92 86 61 44 35 41 53 56 50 59 62 64 63 66 58 58 55 52 56 54 56 53 47 38 30 20 18 23 26 32 36 35 36 37 39 37 38 37 38 37 33 29 28 33 42 41 38 43 42 40 38 38 37 36 34 28 23 19 10 11 10 12 12 5 354 349
181 170 145 140 134 130 130 132 134 136 146 150 150 140 139 136 126 115 93 89 124 124 134 113 79 25 27 60 69 66 69 72 74 68 65 65 62 58 52 55 57 53 57 58 47 33 26 21 21 28 36 38 38 40 45 46 44 43 40 36 34 36 34 30 28 34 37 37 35 38 40 34 30 32 31 29 25 21 16 13 10 8 9 4 2 354 347